www.pogodaiklimat.ru

Погода и климат >> Архив погоды >> Россия >> Красноярский край >> Светлолобово


ПОГОДА в Светлолобово

  • Прогноз погоды в Светлолобово
  • Монитор погоды в Светлолобово

АРХИВ ПОГОДЫ в Светлолобово

Время (UTC), дата Ветер
(напр.,м/с)
 
Видим.   Явления Облачность Т
(С)
Тd
(С)
f
(%)
Тe
(С)
Тes
(С)
Комфортность P
(гПа)
Po
(гПа)
Тmin
(С)
Tmax
(С)
R
(мм)
R24
(мм)
S
(см)
06 17.02 Ю 7
{10}
20 км 6/0
[Ci sp]
-3.2 -9.2 63 -11 -10 1018.0 977.2
09 17.02 ЮВ 7
{12}
20 км 8/8 1000 м
[Sc]
-1.7 -8.9 58 -9 -9 1015.2 974.7
12 17.02 Ю 7
{11}
20 км 8/0
[Ac trans Ci sp]
-3.7 -9.8 63 -11 -11 1014.3 973.6 -1.7
15 17.02 ЮВ 3 20 км 6/0
[Ci fib]
-5.0 -11.6 60 -10 -10 1013.7 972.9
18 17.02 СЗ 2 20 км 4/0
[Ci fib]
-3.4 -13.5 45 -7 -7 1012.0 971.4
21 17.02 СЗ 2 20 км 8/0
[Ci fib]
-3.4 -14.4 42 -7 -7 1011.1 970.5
00 18.02 З 1 20 км 6/0
[Ci fib]
-5.0 -16.3 41 -7 -7 1011.0 970.2 -6.4 21
03 18.02 З 1 50 км 6/0
[Ci fib]
-5.2 -16.2 42 -7 -5 1011.2 970.3 -8.9
06 18.02 Ю 2 50 км 8/0
[Ci fib]
-2.1 -14.3 39 -5 -2 1009.8 969.5
09 18.02 СЗ 2 50 км 8/0
[Ci sp]
-2.3 -12.8 44 -5 -4 1009.1 968.7
12 18.02 Ю 8-10
{11}
20 км 8/0
[Ci sp]
-3.5 -11.2 55 -11 -11 1009.3 968.8 -0.7
15 18.02 Ю 6
{11}
20 км 8/0
[Ac trans Ci sp]
-3.2 -11.0 55 -10 -10 1010.2 969.7
18 18.02 Ю 8
{11}
20 км 6/0
[Ci sp]
-2.8 -10.3 56 -11 -11 1010.1 969.7
21 18.02 Ю 7
{10}
20 км 8/0
[Ci sp]
-2.6 -9.5 59 -10 -10 1011.6 971.2
00 19.02 Ю 6
{10}
20 км 4/0
[Ci fib]
-2.9 -7.5 71 -10 -10 1013.3 972.7 -3.7 21
03 19.02 Ю 6
{10}
50 км 4/0
[Ci fib]
-1.9 -7.4 66 -9 -8 1015.5 975.0 -3.9
06 19.02 ЮЗ 6
{10}
50 км 6/0
[Ci fib]
-0.1 -7.4 58 -6 -5 1017.5 977.2
09 19.02 Ю 3
{10}
50 км 8/0
[Ci fib]
-1.0 -6.5 66 -5 -5 1018.8 978.3
12 19.02 ЮВ 2 20 км 8/0
[Ci fib]
-2.0 -7.9 64 -6 -6 1019.5 978.9 +0.5
15 19.02 Ю 4 20 км 8/0
[Ci fib]
-5.1 -9.6 71 -11 -11 1021.1 979.9
18 19.02 штиль 0 20 км 9/0
[Ci sp]
-6.9 -10.5 75 -8 -8 1021.9 980.4
21 19.02 В 1 20 км 9/0
[Ci sp]
-9.4 -11.4 85 -12 -12 1023.2 981.2
00 20.02 З 1 20 км 4/0
[Ci fib]
-6.6 -9.7 79 -9 -9 1022.9 981.4 -10.2 21
03 20.02 В 1 20 км 6/0
[Ci fib]
-8.0 -10.3 83 -10 -9 1024.4 982.7
06 20.02 СВ 1 50 км 4/0
[Ci fib]
+0.8 -6.1 60 -1 +4 1022.8 982.4
09 20.02 Ю 1 50 км 8/0
[Ci fib]
+1.4 -5.4 61 0 +1 1022.2 981.9
12 20.02 СВ 1 20 км 8/6 600 м
[Cb cap Ci fib]
-0.9 -7.1 63 -3 -3 1021.8 981.2 +2.5
15 20.02 СВ 1 20 км 8/4 600 м
[Cb cap Ci fib]
-4.7 -8.0 78 -7 -7 1022.3 981.2
18 20.02 СВ 1 20 км 6/0
[Ci fib]
-7.6 -10.3 81 -10 -10 1022.3 980.6
21 20.02 ЮЗ 2 20 км 8/6 600 м
[Cb cap Ci fib]
-10.0 -11.7 87 -15 -15 1022.3 980.3
00 21.02 штиль 0 20 км 8/0
[Ci fib]
-13.0 -14.0 92 -13 -13 1022.8 980.3 -13.3 20
03 21.02 штиль 0 50 км 6/0
[Ci fib]
-11.7 -13.3 88 -12 -10 1022.7 980.4 -13.6
06 21.02 З 1 50 км 8/0
[Ci fib]
-6.9 -10.6 75 -9 -5 1022.0 980.5
09 21.02 З 3 50 км 9/6 600 м
[Cb cap Ci fib]
-4.2 -8.5 72 -9 -9 1022.4 981.3
12 21.02 В 1 20 км 9/9 600 м
[Cb cap]
-3.7 -6.6 80 -6 -6 1023.8 982.7 -2.4
15 21.02 ЮЗ 2 20 км 9/8 600 м
[Cb cap Ci fib]
-4.0 -6.7 81 -8 -8 1026.9 985.7
18 21.02 Ю 2 20 км 8/0
[Ci fib]
-3.3 -5.7 83 -7 -7 1027.6 987.9
21 21.02 ЮЗ 6 20 км 6/0
[Ci fib]
-5.4 -10.1 69 -13 -13 1032.5 990.8
00 22.02 ЮЗ 6
{10}
20 км 8/0
[Ci sp]
-7.5 -12.4 68 -16 -16 1034.6 992.5 -7.6 19
03 22.02 Ю 6 20 км ясно -7.5 -12.8 66 -15 -15 1036.7 994.5 -8.5
06 22.02 ЮЗ 6 50 км ясно -3.9 -11.7 55 -11 -9 1036.6 995.0
09 22.02 ЮЗ 6
{10}
50 км 8/0
[Ci fib]
-3.4 -10.9 56 -10 -10 1036.4 994.8
12 22.02 ЮЗ 5 20 км 6/0
[Ci fib]
-6.3 -12.7 60 -13 -13 1037.2 995.2 -3.0
15 22.02 Ю 5 20 км ясно -7.3 -12.3 67 -15 -15 1036.5 994.3
18 22.02 ЮЗ 4 20 км ясно -5.2 -10.9 64 -11 -11 1035.6 993.8
21 22.02 ЮЗ 6 20 км ясно -4.9 -10.7 64 -12 -12 1034.8 993.1
00 23.02 ЮЗ 6
{10}
20 км 8/0
[Ac trans]
-4.8 -10.4 65 -12 -12 1034.9 993.2 -7.8 19
03 23.02 Ю 6
{10}
20 км 8/0
[Ac trans Ci sp]
-5.2 -10.8 65 -13 -12 1035.5 993.7
06 23.02 ЮЗ 5
{10}
20 км 6/0
[Ac trans]
-1.9 -10.1 53 -8 -6 1034.7 993.5
09 23.02 ЮЗ 3 20 км 8/0
[Ac trans]
-0.7 -8.6 55 -5 -4 1033.6 992.5
12 23.02 Ю 6 20 км 8/8 600 м
[Cb cap]
-2.5 -9.0 61 -9 -9 1033.1 991.8 -0.5
15 23.02 Ю 6 20 км 8/8 600 м
[Cb cap]
-1.7 -8.5 60 -8 -8 1032.4 991.3
18 23.02 З 3 20 км 8/0
[Ci fib]
-2.6 -9.5 59 -7 -7 1031.5 990.3
21 23.02 СВ 1 20 км 8/0
[Ci fib]
-4.4 -9.7 66 -6 -6 1030.0 988.6
00 24.02 С 1 20 км 6/0
[Ci fib]
-4.9 -10.6 64 -7 -7 1027.9 986.5 -6.0 19

 

Местоположение метеостанции Светлолобово (Красноярский край, Россия): широта 55.10 долгота 90.83 высота над уровнем моря 325 м.

В архиве по умолчанию представлена погода в Светлолобово за последнюю неделю. Архивные данные за месяц целиком и за предыдущие месяцы, начиная с января 2011 года, Вы можете получить, выбрав интересующий диапазон дат из раскрывающегося списка и нажав кнопку "Ввод!".


*Определитесь, кто Вы:
робот инопланетянин человек

Внимание! Время в таблицах - всемирное. Для получения местного времени необходимо прибавить поправку, которая равна 7 ч.

Смотрите также архив погоды в соседних городах и на ближайших метеорологических станциях:

Погода в Первомайском (Хакасия, Россия) (58 км)
Погода в Балахте (Красноярский край, Россия) (62 км)
Погода в Копьево-2 (Хакасия, Россия) (63 км)
Погода в Ужуре (Красноярский край, Россия) (68 км)
Погода в Шире (Хакасия, Россия) (88 км)
Погода в Назарово (Красноярский край, Россия) (108 км)
Погода в Лебяжьем (Красноярский край, Россия) (111 км)
Погода в Шарыпово (Красноярский край, Россия) (114 км)
Погода в Идринском (Красноярский край, Россия) (116 км)
Погода в Кемчуге (Красноярский край, Россия) (123 км)

Пояснения к столбцам:

Ветер - указаны скорость ветра в м/с - средняя за 10 мин, порывы в срок и между сроками (в фигурных скобках) и направление, откуда дует ветер: С - северный, СВ - северо-восточный, В - восточный, ЮВ - юго-восточный, Ю - южный, ЮЗ - юго-западный, З - западный, СЗ - северо-западный.
Видимость - горизонтальная дальность видимости в метрах или километрах. При видимости от 1 до 10 км при отсутствии осадков обычно наблюдается дымка, при ухудшении видимости до 1 км и менее - туман. В сухую погоду видимость может ухудшаться дымом, пылью или мглою.
Явления - указаны атмосферные явления, наблюдавшиеся в срок или в последний час перед сроком; фигурными скобками обозначены явления, наблюдавшиеся между сроками (за 1-3 часа до срока); квадратными скобками обозначены град или гололедные отложения с указанием их диаметра в мм.
Облачность - указаны через наклонную черту общая и нижняя облачность в баллах и высота нижней границы облаков в метрах; квадратными скобками обозначены формы облаков: Ci - перистые, Cs - перисто-слоистые, Cc - перисто-кучевые, Ac - высококучевые, As - высокослоистые, Sc - слоисто-кучевые, Ns - слоисто-дождевые, Cu - кучевые, Cb - кучево-дождевые. Подробнее классификацию облаков см. в Атласе облаков (PDF).
T - Температура воздуха - температура, измеренная на высоте 2 м над землей.
Td - Температура точки росы - температура, при понижении до которой содержащийся в воздухе водяной пар достигнет насыщения.
f - Относительная влажность воздуха - влажноcть воздуха, измеренная на высоте 2 м над землей.
Te - Эффективная температура - температура, которую ощущает одетый по сезону человек в тени. Характеристика душности погоды. При расчете учитывается влияние влажности воздуха и скорости ветра на теплоощущения человека.
Tes - Эффективная температура на солнце - температура, которую ощущает человек, с поправкой на солнечный нагрев. Характеристика знойности погоды. Зависит от высоты солнца над горизонтом, облачности и скорости ветра. Ночью, в пасмурную погоду, а также при ветре 12 м/с и более поправка равна нулю.
P - Атмосферное давление - приведенное к уровню моря атмосферное давление.
Po - Атмосферное давление - измеренное на уровне метеостанции атмосферное давление.
Tmin - Минимальная температура - минимум температуры воздуха на высоте 2 м над землей.
Tmax - Максимальная температура - максимум температуры воздуха на высоте 2 м над землей.
R - Количество осадков - Количество выпавших осадков за период времени, мм. При наведении курсора мыши на число - период времени, за который выпало указанное количество осадков.
R24 - Количество осадков - Количество выпавших осадков за 24 часа, мм.
S - Снежный покров - Высота снежного покрова, см. При наведении курсора мыши на число - состояние снежного покрова и степень покрытия местности в баллах.